#timestamp,LO_Frequency,Hit,StdDev 
1675800015.6,286047001.2,N
1675800035.4,286046998.5,N
1675800055.2,286047002.3,N
1675800075.1,286046999.9,N
1675800076.0,286046999.9,N
1675800095.8,286047001.0,N
1675800115.6,286047001.1,N
1675800135.5,286046998.9,N
1675800155.3,286046998.2,N
1675800175.2,286047000.8,N
1675800195.9,286046998.1,N
1675800215.7,286046998.3,N
1675800235.6,286046999.7,N
1675800255.4,286047000.5,N
1675800275.2,286046998.2,N
1675800295.1,286046999.8,N
1675800296.0,286046999.8,N
1675800315.8,286047002.8,N
1675800335.7,286047002.8,N
1675800355.5,286047002.3,N
1675800375.4,286047002.0,N
1675800395.2,286047001.5,N
1675800415.0,286046999.7,N
1675800415.9,286046999.7,N
1675800435.8,286047000.1,N
1675800455.6,286047000.2,N
1675800475.4,286047000.8,N
1675800495.3,286047000.3,N
1675800515.1,286046999.7,N
1675800535.9,286047000.1,N
1675800555.7,286047001.9,N
1675800575.5,286047001.7,N
1675800595.4,286047002.8,N
1675800615.2,286047002.3,N
1675800635.0,286047002.8,N
1675800635.9,286047002.8,N
1675800655.8,286047002.0,N
1675800675.6,286047000.1,N
1675800695.5,286047001.0,N
1675800715.3,286046999.8,N
1675800735.1,286047000.6,N
1675800755.9,286047000.8,N
1675800775.7,286046998.9,N
1675800795.5,286047000.5,N
1675800815.4,286047002.4,N
1675800835.2,286047002.0,N
1675800855.1,286047002.5,N
1675800856.0,286047002.5,N
1675800875.8,286047001.5,N
1675800895.6,286047000.1,N
1675800915.5,286047001.0,N
1675800935.3,286046998.7,N
1675800955.1,286047000.9,N
1675800975.9,286047000.8,N
1675800995.7,286047000.2,N
1675801015.6,286047002.4,N
1675801035.4,286047004.4,Y
1675801055.2,286047002.2,P
1675801075.1,286047002.7,P
1675801076.0,286047002.7,P
1675801095.8,286046999.9,N
1675801115.7,286047000.7,N
1675801135.5,286047000.3,N
1675801155.3,286047001.2,N
1675801175.2,286046998.9,N
1675801195.9,286046998.2,N
1675801215.7,286046996.7,N
1675801235.6,286046998.4,N
1675801255.4,286047000.5,N
1675801275.3,286047001.3,N
1675801295.1,286047018.1,Y
1675801296.0,286047018.1,P
1675801315.8,286047018.0,N
1675801335.7,286047021.9,N
1675801355.5,286047015.9,N
1675801375.3,286047013.5,N
1675801395.2,286047011.9,N
1675801415.0,286047006.1,N
1675801415.9,286047006.1,N
1675801435.8,286047004.6,N
1675801455.6,286047001.4,N
1675801475.4,286047002.0,N
1675801495.3,286047002.0,N
1675801515.1,286047002.5,N
1675801535.9,286047002.4,N
1675801555.7,286046999.9,N
1675801575.5,286047000.9,N
1675801595.4,286046998.7,N
1675801615.2,286046997.7,N
1675801635.0,286046997.6,N
1675801636.0,286046997.6,N
1675801655.8,286046994.9,N
1675801675.6,286046997.4,N
1675801695.5,286046997.3,N
1675801715.3,286046995.4,N
1675801735.1,286046997.7,N
1675801755.9,286046998.8,N
1675801775.7,286046993.4,N
1675801795.6,286046992.6,N
1675801815.4,286046994.0,N
1675801835.2,286046996.3,N
1675801855.1,286046993.6,N
1675801856.0,286046993.6,N
1675801875.8,286046996.1,N
1675801895.6,286046994.4,N
1675801915.5,286046994.2,N
1675801935.3,286046994.3,N
1675801955.2,286046993.4,N
1675801975.9,286046994.4,N
1675801995.7,286046992.1,N
1675802015.6,286046992.3,N
1675802035.4,286046994.8,N
1675802055.2,286046996.4,N
1675802075.1,286046993.0,N
1675802076.0,286046993.0,N
1675802095.8,286046993.2,N
1675802115.7,286046994.4,N
1675802135.5,286046994.5,N
1675802155.3,286046991.8,Y
1675802175.2,286046998.6,P
1675802195.0,286047000.1,N
1675802195.9,286047000.1,N
1675802215.7,286047002.8,N
1675802235.6,286047002.4,N
1675802255.4,286047002.8,N
1675802275.3,286047002.0,N
1675802295.1,286047001.9,N
1675802296.0,286047001.9,N
1675802315.8,286047001.9,N
1675802335.7,286047001.7,N
1675802355.5,286047003.6,N
1675802375.3,286047002.8,N
1675802395.2,286047002.5,N
1675802415.0,286047001.9,N
1675802415.9,286047001.9,N
1675802435.8,286046999.7,N
1675802455.6,286047002.6,N
1675802475.4,286047000.5,N
1675802495.3,286047002.2,N
1675802515.1,286047001.5,N
1675802535.8,286047004.4,N
1675802555.7,286047004.4,N
1675802575.5,286047002.1,N
1675802595.4,286047002.1,N
1675802615.2,286047001.7,N
1675802635.0,286047002.2,N
1675802636.0,286047002.2,N
1675802655.8,286047003.5,N
1675802675.6,286047004.3,N
1675802695.5,286047003.9,N
1675802715.3,286047005.9,Y
1675802735.1,286047001.6,P
1675802755.9,286047000.6,N
1675802775.7,286046999.4,N
1675802795.6,286047002.3,N
1675802815.4,286047000.1,N
1675802835.2,286047000.1,N
1675802855.1,286047000.3,N
1675802856.0,286047000.3,N
1675802875.8,286047000.8,N
1675802895.6,286047000.9,N
1675802915.5,286046999.1,N
1675802935.3,286046996.7,Y
1675802955.2,286046997.4,P
1675802975.9,286046997.2,N
1675802995.7,286046998.9,N
1675803015.6,286047000.4,N
1675803035.4,286047000.5,N
1675803055.3,286047001.9,N
1675803075.1,286047005.8,Y
1675803076.0,286047005.8,P
1675803095.8,286047003.6,N
1675803115.7,286047003.6,N
1675803135.5,286047002.4,N
1675803155.4,286047000.3,N
1675803175.2,286046998.1,N
1675803195.0,286047000.6,N
1675803195.9,286047000.6,N
1675803215.8,286047000.7,N
1675803235.6,286047002.4,N
1675803255.5,286047002.7,N
1675803275.3,286047004.4,N
1675803295.1,286047005.8,N
1675803315.9,286047007.3,Y
1675803335.7,286047002.1,P
1675803355.6,286046999.7,P
1675803375.4,286047002.2,N
1675803395.2,286047000.0,N
1675803415.1,286047002.8,N
1675803416.0,286047002.8,N
1675803435.8,286047004.3,Y
1675803455.7,286046999.5,P
1675803475.5,286046996.5,P
1675803495.3,286047001.1,N
1675803515.2,286047000.2,N
1675803535.0,286047000.9,N
1675803535.9,286047000.9,N
1675803555.7,286047000.8,N
1675803575.6,286047000.8,N
1675803595.4,286047000.5,N
